C/2008 A1 (McNaught)
Epoch 2008 Sept. 11.0 TT = JDT 2454720.5  
T 2008 Sept. 29.12697 TT                                Nakano
q   1.0730676            (2000.0)            P               Q
z  -0.0002012      Peri.  348.47654     +0.10873762     +0.15326134
 +/-0.0000025      Node   277.88370     -0.81495898     -0.55203056
e   1.0002159      Incl.   82.54917     -0.56922578     +0.81961773
From 869 observations 2008 Jan. 10-2009 July 14, mean residual 0".71.
   Nongravitational parameters A1 = +5.10 +/- 0.05, A2 = +0.7641 +/- 0.0272.
   (1/a)org.= +0.000090, (1/a)fut.= +0.000250 (+/-0.000003), Q= 7.
Residuals in seconds of arc 
2008/                     080819 E94 (2.4+  1.2-)   081115 232  0.3+  0.2+  
080110 E12  0.6+  0.1+    080820 I32  0.2+  0.1-    081115 232  0.3+  0.1-  
080110 E12  0.7+  0.2+    080820 I32  0.9+  0.0     081115 232  0.2+  0.5-  
080110 E12  0.5+  0.1+    080820 I32  0.6+  0.0     081116 J79  0.4-  0.0   
080110 E12  0.5+  0.2+    080821 I31  0.6+  0.4-    081116 J79  0.5-  0.2-  
080110 E12  0.5+  0.1+    080824 I32  0.3+  0.8-    081116 J79  0.3+  0.9-  
080110 E12  0.6+  0.1+    080824 I32 (0.3+  2.3-)   081116 J47  0.4-  0.1+  
080110 E12  0.6+  0.0     080824 I32  0.3-  1.4-    081116 J47  0.5-  0.5-  
080111 673  0.5+  0.2-    080824 I32  0.5+  0.9-    081116 J39  0.6+  0.1-  
080111 H06  0.3+  0.6-    080824 I31  1.2+  0.5-    081116 J47  0.0   0.1-  
080111 673  0.6+  0.0     080824 I31  0.5+  0.7-    081116 J39  0.1+  0.1+  
080111 H06  0.4+  0.0     080824 I31  0.8+  0.7-    081116 J39  0.0   0.0   
080111 673  0.5+  0.4+    080824 I31  1.1+  0.7-    081117 367  0.2-  0.4-  
080111 673  0.5+  0.7+    080826 I32  1.4+  1.2-    081117 367  0.1+  0.1-  
080111 423  0.6+  0.3+    080826 I32  0.6+  0.8-    081117 367  0.5+  0.2-  
080111 423  1.0+  0.1-    080826 I32  1.2+  0.6-    081117 442  0.8-  0.1+  
080111 E12  0.5+  0.1+    080826 I31  1.0-  0.1-    081117 442  0.6-  0.2-  
080111 E12  0.6+  0.1+    080826 I31  1.2+  1.3-    081117 204  0.6-  0.2-  
080111 E00 (3.4-  0.0 )   080826 I31 (1.5+  2.3-)   081117 204  0.5-  0.3-  
080111 E00  0.3+  0.3+    080826 I31  0.4+  1.0-    081117 204  0.6-  0.3-  
080111 413  0.4+  0.3+    080829 I32  0.8+  0.1-    081117 204  0.7-  0.5-  
080111 413  0.5+  0.3+    080829 I32  1.0+  0.5-    081117 J47  0.4-  0.2-  
080111 413  0.5+  0.3+    080829 I32  0.6+  0.1-    081117 J47  0.7-  1.1-  
080111 D35  0.2+  0.7-    080903 I31  1.0+  0.0     081117 J47  0.1-  0.1+  
080111 D35  1.2+  0.4-    080903 I31  0.4+  0.6-    081118 372  1.0-  0.5+  
080111 D35  2.0+  0.3-    080903 I31  0.9+  0.9-    081118 372  0.8-  0.7+  
080111 E12  0.1+  0.4-    080903 I31  1.3+  0.7-    081118 372  0.9-  0.7+  
080112 834  0.3+  0.1-    080903 I31  0.3+  0.6-    081118 372  0.8-  0.3+  
080112 834  0.7+  0.1+    080903 I31  0.1+  0.4+    081118 J47  0.6-  0.2-  
080112 834  0.4+  0.3+    080908 I32  0.1+  0.7+    081118 J47  0.3-  0.7-  
080112 413  0.5+  0.3+    080908 I32  0.2+  0.4+    081118 J47  0.2-  0.1-  
080112 372  0.1+  0.5+    080909 I32  0.6-  0.6+    081120 372  0.4-  0.4+  
080112 372  0.1+  0.7+    080909 I32  0.6-  0.9+    081120 372  0.8-  0.1-  
080112 372  0.3-  0.7+    080909 I32  0.5-  1.0+    081120 372  0.0   0.7+  
080112 413  0.8+  0.4-    080909 I32  0.4-  0.2+    081120 900  0.5-  0.5-  
080112 413  0.3+  0.2-    080909 I31  0.9+  0.7+    081120 900  0.5-  0.5-  
080113 834  0.5+  0.1+    080909 I31  0.7+  0.9+    081120 J47  0.2-  0.3-  
080113 834  0.5+  0.1+    080909 I31  0.7+  0.2+    081120 J47  0.9-  0.4-  
080113 834  0.3+  0.0     080909 I31  0.0   0.6+    081120 J47  1.0-  0.7-  
080113 E12  0.5+  0.0     080909 I31  0.2+  0.3+    081120 J47  0.6-  0.3-  
080114 E00  0.7-  1.3-    080909 I31  0.8+  0.9+    081120 J47  0.7-  0.6-  
080114 E00  0.5+  0.4-    080911 I31  0.2-  1.2+    081122 939  0.3+  0.2-  
080114 D90  0.4+  0.1+    080911 I31  0.3-  1.0+    081122 939  0.0   0.5-  
080114 E00  1.2+  1.4-    080911 I31  0.8-  0.7+    081122 232  0.3-  0.3-  
080114 D90  0.6+  0.1+    080911 I31  0.1-  0.5+    081122 939  0.1-  0.8-  
080114 E00  0.8+  1.1+    080911 I31  0.0   1.0+    081122 232  0.1-  1.1-  
080115 423  0.6+  0.1+    080911 I31  0.1-  0.3+    081122 232  0.2+  0.4-  
080115 423  0.6+  0.3+    080912 I31  0.4+  0.2+    081122 J47  0.8-  0.5-  
080115 415  0.1+  0.3+    080912 I31  0.7+  0.4+    081122 J47  0.6-  0.4-  
080115 415  0.3+  0.2+    080912 I31  0.5+  0.6+    081122 J47  0.8-  0.5-  
080116 673  1.2+  0.0     080912 I31  0.8+  0.5+    081123 349  0.2-  0.2-  
080116 673  0.2-  0.0     080912 I31  0.6-  0.2+    081123 349  0.2-  0.2-  
080116 673  0.1+  0.2-    080912 I31  0.2-  0.4+    081123 349  0.1-  0.2-  
080116 673  0.3+  0.2+    080916 I32  0.6-  0.9+    081123 367  0.3-  0.5-  
080116 372  0.3+  0.4-    080916 I32  1.0-  0.2+    081123 900  0.6-  0.6-  
080117 834  0.4+  0.2-    080916 I32  0.3+  0.1+    081123 367  0.7-  0.5-  
080117 834  0.3+  0.0     080916 I31  0.6-  0.4+    081123 367  0.0   0.2-  
080117 834  0.1-  0.1-    080916 I31  0.2-  1.0+    081123 900  0.7-  0.5-  
080117 834  0.1+  0.2-    080916 I31  0.4-  0.7+    081123 629  0.5-  0.4-  
080120 834  0.4+  0.3-    080916 I31  1.2-  1.1+    081123 629  0.7-  0.7-  
080120 834  0.2+  0.1+    080916 I31  0.2+  0.9+    081123 212  0.4+  0.3+  
080120 834  0.0   0.4-    080921 I31  1.3-  0.6+    081123 212  0.2-  0.5-  
080126 467  0.4+  0.1+    080921 I31  0.8-  0.6+    081123 212  0.0   0.5-  
080126 467  0.5+  0.1+    080921 I31  0.0   0.3+    081123 J24  0.8+  0.1+  
080126 467  0.4+  0.1+    080921 I31  0.7-  0.7+    081123 J24  0.2+  0.1+  
080126 467  0.4+  0.0     080922 467  1.2-  0.4+    081123 J24  0.9+  0.9+  
080126 467  0.4+  0.1+    080922 467  0.8-  0.3+    081124 J47  0.0   0.1-  
080126 E12  0.4+  0.0     080922 467  1.1-  0.4+    081124 J47  0.5+  0.0   
080126 E12  0.2+  0.1+    080925 467  0.9-  0.3+    081124 J47  0.1+  0.0   
080127 423  0.4+  0.2-    080925 467  0.9-  0.4+    081124 J47  0.6+  0.2-  
080127 423  0.3+  0.2-    080925 467  1.1-  0.3+    081128 372  0.6-  0.3+  
080128 E00  1.3-  1.1-    080925 I31  0.4-  1.0+    081129 939  0.4-  0.5-  
080128 E00  0.0   1.4-    080925 I31  0.7-  1.3+    081129 939  0.4-  0.3-  
080128 E00  1.3-  1.1-    080925 I31  1.0-  0.3+    081129 939  0.1-  0.3-  
080128 415  0.3+  0.0     080925 I31  0.2+  0.2+    081129 J47  1.1-  0.7-  
080128 415  0.1+  0.1+    080925 I31  0.9-  1.0+    081129 J47  0.7-  0.6-  
080131 372  0.2+  0.4+    080926 E85  1.1-  0.4+    081129 J47  0.3-  0.5-  
080131 372  0.6+  0.0     080926 E85  1.3-  0.3+    081129 J47  0.8-  0.8-  
080201 467  0.3+  0.2+    080926 E85  1.7-  0.6+    081130 372  0.4-  0.6+  
080201 467  0.3+  0.2+    080928 E94  0.5-  0.1+    081130 372  0.9-  0.7-  
080201 467  0.4+  0.2+    080928 467  1.2-  0.5+    081130 900  0.8+  1.0+  
080201 467  0.2+  0.1+    080928 E94  0.6-  0.3+    081130 900  0.2-  0.4-  
080201 467  0.2+  0.0     080928 467  1.0-  0.2+    081130 J79  1.8-  0.6-  
080201 467  0.3+  0.0     080928 467  0.8-  0.0     081130 J79  0.6-  0.3+  
080203 372  0.3+  0.2+    080928 E94  0.6-  0.8+    081130 J79  0.0   0.3-  
080203 372  0.1+  0.1-    080928 J47  0.4-  1.4+    081202 A77  0.2+  0.1-  
080203 372  0.7+  0.6+    080928 J47  0.7-  0.8+    081202 A77  0.4-  0.5-  
080204 372  0.0   0.5+    080928 J47  1.2-  0.3+    081203 J24 (4.3+  0.5+) 
080204 372  0.6+  0.0     081001 D78  0.2-  1.2+    081203 J24 (3.2+  1.3-) 
080205 834  0.7+  0.3-    081001 D78  0.4-  1.9+    081203 J24 (1.8+  2.8-) 
080205 834  0.5+  0.4-    081001 D78  1.7-  0.9-    081204 J24  1.6-  0.5+  
080205 834  0.3+  0.4-    081001 367  0.5-  0.6+    081204 J24  1.2+  0.4+  
080205 467  0.4+  0.0     081001 367  0.4-  0.7+    081204 J24  0.2-  0.7-  
080205 467  0.1+  0.2+    081001 367  0.0   0.2+    081207 349  0.3-  0.7-  
080205 467  0.1+  0.2+    081001 367  0.6-  0.1-    081207 349  0.4-  0.6-  
080205 467  0.3+  0.0     081004 349  0.8-  0.3+    081207 349  0.2-  0.5-  
080205 467  0.3+  0.1-    081004 349  0.9-  0.2+    081207 871  1.0+  0.3+  
080205 467  0.3+  0.1-    081004 349  1.0-  0.1+    081207 871  0.2-  0.1+  
080205 J46  0.6+  0.2+    081004 349  1.1-  0.2+    081207 A77  0.6-  0.3-  
080205 J46  0.2+  0.4-    081004 I32  0.8-  0.1+    081207 204  0.8-  1.1-  
080206 J46  0.2+  0.8-    081004 I32  1.0-  0.1+    081207 A77  0.7-  0.4-  
080206 834  0.2+  0.3-    081004 I32  0.5-  0.0     081207 A77  0.5-  0.2-  
080206 834  0.5+  0.1+    081004 I32  1.1-  0.2+    081210 J47  0.4-  0.8-  
080206 467  0.2+  0.0     081009 372  1.0-  0.3+    081210 J47  0.5-  0.6-  
080206 467  0.3+  0.2-    081009 372  0.9-  0.5+    081210 J47  0.9-  0.3-  
080206 467  0.4+  0.1-    081009 372  1.7-  0.9+    081210 J47  1.1-  0.3-  
080206 467  0.2+  0.0     081010 J24  0.0   0.0     081211 212  0.3+  0.4-  
080206 467  0.1+  0.0     081010 J24  0.4+  0.6+    081211 212  0.3-  0.0   
080206 467  0.3+  0.1-    081010 J24  0.1-  1.1+    081211 212  0.3+  1.2-  
080207 467  0.1+  0.1-    081010 I32  1.0-  0.5-    081213 J24  0.3-  0.1+  
080207 467  0.2+  0.0     081010 I32  0.6-  0.2-    081213 J24  0.6-  0.2+  
080207 467  0.3+  0.1+    081010 I32  1.3-  0.5-    081213 J24  1.7-  0.4-  
080207 467  0.3+  0.0     081010 I32  0.7-  0.0     081213 J24  0.3-  0.6-  
080207 E12  0.4+  0.1+    081010 I31  0.6-  0.5-    081213 J24  0.3-  0.4-  
080207 372  0.8+  0.0     081010 I31  1.0-  0.0     081214 J24 (2.9-  2.7+) 
080207 372  0.8+  0.8+    081010 I31  0.2-  0.2-    081214 J24  1.1-  2.1-  
080207 372  0.4+  0.1+    081010 I31  0.9-  0.7+    081214 J24 (3.5+  0.1-) 
080208 467  0.1+  0.1-    081011 372  1.9-  0.8-    081214 J24 (4.9+  1.0-) 
080208 467  0.2+  0.1-    081011 J47  1.0-  0.0     081214 J24 (3.4+  4.8+) 
080208 467  0.2+  0.0     081011 J47  0.6-  0.1+    081216 367  0.6+  0.5-  
080208 467  0.1+  0.0     081011 J47  0.8-  0.1-    081216 367  0.0   0.1-  
080208 467  0.2+  0.0     081011 J47  0.6-  0.2+    081216 367  0.0   1.0-  
080208 467  0.4+  0.0     081012 900  1.1-  0.1+    081216 J47  0.9-  0.7-  
080209 J46  0.3+  0.3+    081012 900  0.9-  0.0     081216 J47  0.6-  0.6-  
080209 J46  0.5+  0.4+    081013 349  0.8-  0.2-    081216 J47  0.3-  0.7-  
080210 D88  0.5+  0.4-    081013 349  0.4-  0.3-    081216 J47  0.7-  0.5-  
080212 834  0.8+  0.1+    081013 349  0.7-  0.2+    081219 J47  0.1+  0.9-  
080212 834  0.1+  0.0     081013 349  0.8-  0.0     081219 J47  1.3-  0.5-  
080212 415  0.3+  0.2-    081013 900  0.9-  0.1+    081219 J47  0.7-  0.0   
080212 415  0.3+  0.3+    081013 900  0.9-  0.1-    081219 J47  0.2-  1.0-  
080215 423  0.1+  0.3-    081013 367  0.9-  0.5-    081220 900  1.8-  1.0-  
080215 423  0.3+  0.5-    081013 367  0.9-  0.2+    081220 900 (3.2-  1.7-) 
080217 834  0.2+  0.1+    081013 367  1.0-  0.1-    081221 J38  0.1-  0.3-  
080217 834  0.2+  0.0     081013 367  0.8-  0.5+    081221 J38  0.5-  1.2+  
080217 834  0.4+  0.1+    081014 J47  0.6-  0.2-    081221 J38  1.0+  0.1+  
080217 D88  1.3+  0.9+    081014 J47  0.6-  0.6-    081222 J38  0.7-  0.8-  
080217 D88  0.0   0.4+    081014 J47  1.2-  0.3-    081222 J38  0.5-  0.9-  
080218 J46  0.8+  2.0+    081014 J24  0.3-  0.6+    081222 J38  0.4-  0.8-  
080218 J47  0.6+  1.1-    081014 J24  0.8-  0.6+    081223 J38  0.3-  0.2-  
080218 J47  1.2+  0.2+    081014 J47  0.2-  0.1+    081223 J38  0.1-  0.4-  
080218 J47 (1.0-  2.7-)   081014 J24  0.9+  1.3+    081223 J38  0.1-  1.1-  
080224 D88  1.8+  0.2+    081016 I32  0.2-  0.1-    081227 349  0.4-  0.4-  
080224 D88  0.8+  0.1-    081016 I32  0.2+  0.1-    081227 349  0.2+  0.5-  
080224 D88  0.1+  0.2-    081016 I32  0.4-  0.4-    081227 349  0.4-  0.1-  
080226 467  0.0   0.1-    081017 372  0.9-  0.7-    081228 J38  0.6-  0.4-  
080226 467  0.0   0.1-    081018 900  0.5-  0.2-    081228 J38  0.0   1.1-  
080226 467  0.0   0.1-    081018 900  0.3-  0.3-    081231 349  0.6-  0.3-  
080227 834  0.1+  0.3-    081018 372  1.1-  0.8-    081231 349  0.9-  0.1-  
080227 834  0.3-  0.3-    081018 372  0.1-  0.5-    081231 349  0.6-  0.2-  
080228 467  0.0   0.0     081018 D81  0.1-  1.2-    2009/                   
080228 467  0.1+  0.2-    081018 D81  0.6-  0.8-    090101 204  0.4-  0.7-  
080228 467  0.1-  0.0     081018 367  0.3-  0.0     090102 349  0.4-  0.3-  
080229 E12  0.0   0.1+    081018 D81  1.1-  0.6-    090102 349  0.0   0.2+  
080229 423  0.2+  0.3-    081018 372  0.7-  0.8+    090102 204  0.3-  0.7-  
080229 423  0.2+  0.1+    081018 D81  0.3-  0.3+    090102 204  0.5-  0.1-  
080302 423  0.3+  0.1+    081018 367  0.3-  0.0     090105 A32  0.4-  0.4-  
080302 423  0.0   0.0     081018 367  0.3-  0.1-    090105 A32  0.7-  0.6-  
080303 423  0.0   0.0     081018 A71  0.1-  0.2+    090105 A32  0.3-  0.5-  
080303 423  0.1+  0.2-    081018 A71  0.1+  0.0     090105 A32  0.2-  0.4-  
080308 423  0.3+  0.3-    081018 A71  0.1+  0.1+    090105 A32  0.1-  0.5-  
080308 423  0.3-  0.0     081019 467  0.7-  0.5-    090105 A32  0.4-  0.1-  
080311 467 (1.3-  2.2+)   081019 467  0.5-  0.6-    090108 629  0.5-  0.0   
080311 467  0.6-  1.3+    081019 467  0.7-  0.4-    090108 629  1.1-  0.7-  
080311 467  0.2-  0.9+    081019 871  0.2-  0.3+    090109 J38  0.4-  1.6-  
080311 423  0.0   0.3-    081019 871  0.1-  0.6+    090109 J38  0.5-  0.5-  
080311 423  0.0   0.1-    081019 A77  0.3-  0.1+    090110 J38  0.6-  0.2-  
080312 423  0.0   0.4-    081019 A77  0.5+  0.3-    090110 J38  0.6-  0.8-  
080312 423  0.0   0.1-    081019 B73  0.1-  0.6+    090110 J38  0.6-  0.5-  
080313 423  0.2-  0.2-    081020 467  0.5-  0.5-    090111 J38  0.0   0.1-  
080313 423  0.1+  0.2-    081020 467  0.9-  0.5-    090111 J38  0.4-  0.0   
080315 900  0.1+  0.5-    081020 467  0.5-  0.3-    090111 J38  0.1-  0.3+  
080315 900  0.0   0.1-    081020 215  0.2-  0.0     090112 215  0.0   0.6-  
080315 423  0.1+  0.0     081020 215  0.2-  0.0     090112 215  0.2-  0.9-  
080315 423  0.4+  0.0     081020 215  0.3-  0.2+    090112 215  0.5-  1.0-  
080315 J24  0.9-  0.7-    081020 J47  0.7-  1.7-    090123 J24  0.2+  1.0+  
080315 J24  0.8+  0.6+    081020 J47  0.7-  0.1+    090123 J24  0.6+  0.5+  
080316 467  0.4-  0.3+    081020 J47  1.0-  0.3-    090123 J24  1.7+  0.4+  
080316 467  0.0   0.4-    081020 J47  0.5-  0.0     090124 349  0.2+  0.1-  
080316 467  0.1-  0.5-    081020 J24  0.0   0.6+    090124 349  0.3+  0.1+  
080316 423  0.1+  0.2-    081020 J24  0.6-  0.9+    090124 349  0.3+  0.2-  
080316 423  0.1+  0.1-    081020 J24  0.5+  1.3+    090125 A32  0.3-  0.9-  
080316 415  0.2-  0.2+    081021 J24  0.7-  0.9+    090125 A32  0.8-  0.2-  
080316 415  0.3-  0.2+    081021 J24  0.4-  0.5+    090125 A32  1.0-  0.3+  
080317 467  0.1-  0.2+    081021 J45  0.9-  0.9-    090125 372  0.7-  0.3-  
080317 467  0.1-  0.2+    081021 J24  0.3+  0.9+    090128 372  0.3-  0.7+  
080317 467  0.2-  0.2+    081021 J45  0.3-  0.0     090128 900  0.0   0.1-  
080320 467  0.3-  0.1-    081023 J24  0.0   0.6+    090128 900  0.2+  0.3+  
080320 467  0.4-  0.2+    081023 J24  0.2+  1.3+    090201 372  0.7+  1.2+  
080320 467  0.1-  0.0     081023 J24  0.0   0.7+    090206 900  1.0+  0.0   
080322 349  1.5-  1.2-    081024 372  1.7-  0.5-    090206 900  1.0+  0.8-  
080322 349  1.7-  0.9-    081024 B73  0.2-  0.4+    090222 A77  1.6-  2.0+  
080327 467  0.2-  0.1+    081024 B73  0.5-  0.2+    090224 J24  0.8+  1.3+  
080327 467  0.2-  0.1+    081024 J38  0.2-  0.2+    090224 J24 (2.1-  2.9+) 
080327 467  0.2-  0.2+    081024 J38  0.2-  0.5+    090311 900  0.3+  0.6+  
080330 423  0.1+  0.1-    081024 J38  0.1-  0.4+    090311 900  0.5+  0.5+  
080330 423  0.1+  0.2+    081024 J24  0.1+  0.8+    090311 349  0.0   1.1+  
080331 423  0.1+  0.1-    081024 J24  0.1+  0.8+    090311 349  0.1+  0.7+  
080331 423  0.1+  0.1+    081024 J24  0.1+  0.8+    090311 349  0.2-  0.9+  
080401 415  0.3-  0.1-    081025 A77  0.3+  0.2+    090314 900  0.2-  1.0+  
080401 415  0.0   0.6+    081025 A77  0.8+  0.2+    090314 900  0.5-  0.9+  
080402 E85  0.7-  0.2+    081025 B26  0.6+  0.8+    090318 510  0.5+  0.4+  
080402 E85  0.0   0.1+    081025 A77  0.2+  0.9+    090318 510  0.7-  0.7+  
080402 E85  0.1+  0.1+    081025 213  0.2+  0.3+    090318 510  0.7+  1.5+  
080402 467  0.2-  0.2+    081025 213  0.2+  0.2-    090320 D80  0.6-  1.6+  
080402 467  0.2-  0.1+    081025 213  1.0-  0.5-    090320 D80  0.4-  1.5+  
080402 467  0.1-  0.2+    081026 A77  0.3+  0.0     090321 235  0.7-  0.7+  
080403 415  0.3+  0.2-    081026 A77  0.3+  0.3-    090323 B42  0.4+  1.6+  
080403 415  0.0   0.3+    081026 A77  0.5+  0.2+    090323 B42  0.5+  1.0+  
080404 467  0.2-  0.3+    081027 372  0.9-  0.1-    090323 B42  0.4+  1.7+  
080404 467  0.2-  0.1+    081029 372  1.0-  0.5-    090331 J40  0.9+  1.6+  
080404 467  0.0   0.1+    081030 J47  0.0   0.6-    090331 J40  0.8+  1.8+  
080404 423  0.1+  0.2-    081030 J47  0.0   0.5-    090331 J40  0.9+  2.1+  
080404 423  0.0   0.1-    081030 J47  0.4-  0.8-    090401 510  0.1-  1.7+  
080405 423  0.1+  0.2-    081031 J47  0.2-  0.5-    090401 510  0.8-  1.0+  
080405 423  0.0   0.0     081031 J47  0.2-  0.5-    090403 A32  0.4-  1.6+  
080409 467  0.2-  0.1+    081031 J24  1.5+  0.8+    090403 A32  0.5-  1.6+  
080409 467  0.1-  0.1+    081031 J47  0.2-  0.5-    090403 A32  0.2-  0.1-  
080409 467  0.2-  0.2+    081031 J24  0.6+  0.7+    090403 A32  0.6-  0.6+  
080410 423  0.1+  0.2+    081031 J24  0.4+  0.5+    090403 A32  1.7-  1.8+  
080410 467  0.3-  0.3+    081031 J47  0.4-  0.6-    090405 D93  0.4-  1.1+  
080410 467  0.2-  0.4+    081031 J47  0.3-  0.5-    090405 D93 (3.7+  3.5+) 
080410 467  0.3-  0.4+    081101 349  0.7+  0.1-    090405 D93 (1.9+  2.8+) 
080410 423  0.1-  0.0     081101 900  0.3-  0.3-    090406 D93  0.1-  1.1+  
080411 423  0.0   0.4-    081101 349  0.6+  0.2-    090406 900  0.1-  0.9+  
080411 423  0.0   0.3-    081101 349  0.3+  0.4-    090406 D93  0.1+  1.1+  
080423 467  0.2-  0.2+    081101 900  0.2-  0.1-    090406 D93  0.0   1.5+  
080423 467  0.3-  0.3+    081101 235  0.1-  0.3-    090406 900  0.2-  1.0+  
080423 467  0.3-  0.3+    081102 J47  0.5-  0.2-    090409 349  0.5+  1.1+  
080426 423  0.1+  0.0     081102 J47  0.5-  0.2-    090409 349  0.4+  1.0+  
080426 423  0.3-  0.3+    081102 J47  0.6-  0.3-    090409 349  0.6+  0.9+  
080429 423  0.4+  0.1-    081103 213  0.4-  0.2+    090413 204  0.5-  1.0+  
080429 423  0.1-  0.0     081103 442  0.2-  0.0     090413 B82  0.2+  1.2+  
080502 423  0.3+  0.2+    081103 213  0.8-  0.1-    090413 B82  0.6+  0.5+  
080502 423  0.0   0.3+    081103 213  0.9-  0.0     090413 B82  0.5+  1.3+  
080503 423  0.0   0.0     081103 442  0.2+  0.3+    090414 204  0.1-  1.1+  
080503 423  0.0   0.3+    081103 J47  0.7-  0.1-    090414 204  0.3-  1.0+  
080504 423  0.2+  0.1+    081103 J47  0.6-  0.2-    090414 204  0.4-  1.2+  
080504 423  0.1+  0.1+    081103 J47  0.2+  0.0     090414 B82  0.7+  0.6+  
080505 423  0.0   0.2+    081103 J47  0.3-  0.1+    090414 B82  0.6+  0.3+  
080505 423  0.1+  0.2+    081106 B74  0.2+  0.2-    090414 B82  0.2-  0.5+  
080506 E12  0.5+  0.8+    081106 B74  0.2+  0.1-    090414 B82  0.0   0.3+  
080508 423  0.2+  0.0     081106 B74  0.3+  0.1-    090415 B82  0.3+  1.3+  
080508 423  0.1+  0.1+    081106 J24  0.7+  0.2-    090415 B82 (1.5+  2.3+) 
080508 415  0.5-  0.4+    081106 J24  0.5+  0.9+    090415 B82  0.0   0.9-  
080508 415  0.2-  0.5+    081106 J24  1.4+  1.5+    090419 987  0.2-  1.5+  
080510 423  0.1+  0.0     081107 A18  0.4-  0.2-    090419 987  0.6+  0.8+  
080510 423  0.2+  0.2-    081107 J70  0.6+  0.1+    090419 987  0.2-  0.4+  
080515 423  0.1+  0.2+    081107 J70  0.6+  0.1-    090423 J10 (0.5-  2.6+) 
080515 423  0.1-  0.1+    081107 J70  1.1+  0.1-    090423 J10  0.9-  2.0+  
080528 E85  0.1-  0.4+    081107 J70  0.8+  0.2-    090423 J10  0.6-  1.0+  
080528 E85  0.0   0.2+    081107 J70  0.1+  0.2+    090423 A32  0.7-  1.7+  
080528 E85  0.1+  0.3+    081107 J70  0.9+  0.0     090423 A32  0.7-  1.6+  
080528 467  0.0   0.4+    081107 J70  1.3+  0.1+    090423 A32  0.7-  1.5+  
080528 467  0.1-  0.4+    081107 J70  0.7+  0.2+    090428 900  0.1-  0.8-  
080528 467  0.1+  0.4+    081107 J70  0.6+  0.3+    090428 900 (2.1-  3.1+) 
080606 415  0.2+  0.1+    081107 J70  0.8+  0.0     090501 B84  0.8-  1.0+  
080606 415  0.2+  0.0     081107 J70  0.8+  0.1-    090501 B84  0.8-  1.1+  
080611 474  0.2+  0.1+    081107 J70  0.2+  0.1-    090508 349  1.9-  1.9+  
080611 474  0.6+  0.3+    081107 J70  1.0+  0.7+    090508 349 (1.3-  2.3+) 
080611 474  0.3+  0.3+    081107 J47  0.4-  0.0     090510 J40 (1.8-  2.4-) 
080630 474  0.6+  0.2+    081107 J47  0.5-  0.4-    090510 J40 (1.0+  2.4+) 
080630 474  0.7+  0.1+    081107 J47  0.3-  0.4-    090511 J40 (0.6+  2.7+) 
080630 474  0.9+  0.5-    081108 A77  0.5-  0.1-    090511 A32  1.0-  0.6+  
080715 I31  1.1+  1.8+    081108 A77  0.2+  0.0     090511 A32  0.9-  1.1+  
080715 I31 (0.5+  2.4-)   081108 A77  0.2-  0.3-    090519 J24  0.1+  1.6+  
080715 I31  0.3-  0.1+    081109 J79  0.3-  0.4+    090519 J24  0.8-  1.5+  
080724 I32  0.3+  0.7-    081109 J79  0.7-  2.0+    090519 J24 (0.8-  2.6+) 
080724 I32  0.0   0.7-    081109 J79  0.4-  0.9+    090524 J24 (0.3+  4.6+) 
080724 I32  0.8+  0.7-    081109 J47  0.6-  0.3-    090524 J24 (1.3-  3.7+) 
080727 E94  0.3-  0.1+    081109 J47  0.6-  0.3-    090524 J24  1.2-  1.3+  
080727 E94  1.1+  0.5-    081109 J47  0.5-  0.5-    090526 470  0.7-  0.9+  
080727 E94  1.9-  0.2+    081109 J47  0.6-  0.5-    090526 470  0.3+  1.8+  
080803 I32  1.1+  0.3+    081109 J24  0.3+  0.5+    090531 J51 (0.7-  2.3+) 
080803 I32  1.0+  0.2-    081109 J24  0.0   0.3+    090531 J51 (0.4+  2.5+) 
080803 I32  0.1-  1.3-    081109 J24  0.5+  0.6+    090531 J51 (3.2-  3.8+) 
080803 I31 (2.3+  0.2-)   081110 B74  0.2+  0.0     090601 900  1.1-  0.4-  
080803 I31  1.1+  0.4-    081110 B74  0.5+  0.2+    090601 900  0.0   1.0+  
080803 I31  0.5+  1.5-    081110 J20  0.7-  1.7-    090604 A13  0.4-  2.1+  
080803 I31  0.5-  1.6-    081110 B74  0.3+  0.3+    090604 A13  0.8-  1.7+  
080803 I31  0.5+  0.8-    081110 J20  0.1-  0.0     090611 349 (0.0   2.3+) 
080803 I31  0.3-  0.3-    081110 J20  1.0+  0.7-    090611 349 (0.6-  2.8+) 
080803 I31  1.2+  0.2-    081113 372  1.0-  0.6-    090612 J24  0.3+  0.2+  
080804 E94  0.1+  0.5-    081113 372  1.2-  0.2+    090612 J24  1.7+  1.7+  
080804 E94  1.4+  0.1-    081113 372  0.8-  0.2+    090613 561 (0.0   2.5+) 
080804 E94  1.8-  0.2-    081113 442  0.1+  0.0     090613 561  0.2-  2.0+  
080804 E94  0.8-  0.0     081113 442  0.3-  0.2+    090613 561 (0.1+  2.2+) 
080806 I31  1.2+  0.4-    081113 A77  1.1+  0.6+    090615 B11  0.0   1.4+  
080806 I31  1.5+  0.6-    081113 A77  0.3+  0.2+    090615 B11 (2.1-  2.7+) 
080806 I31  1.9+  0.6+    081113 A77  0.9+  0.1+    090618 561  0.9-  0.7+  
080806 I31  0.7+  0.8+    081114 J24  0.8+  0.5+    090618 561  1.0-  1.0+  
080812 I32  0.6+  0.0     081114 J24  0.5+  0.1-    090618 561  0.4+  0.4+  
080812 I32  0.3+  0.2-    081114 J47  0.2+  0.1+    090619 J24 (0.0   3.1+) 
080812 I32  0.8+  0.3+    081114 J47  0.2+  0.1+    090619 J24 (0.7+  2.9+) 
080812 I31  0.7+  0.0     081114 J47  0.1+  0.7-    090619 J24 (0.0   2.3+) 
080812 I31  0.7+  0.3-    081114 J24  0.9+  0.1+    090621 J53  0.3-  2.0+  
080812 I31  0.1+  0.3-    081115 204  0.6-  0.4-    090621 J53  0.9+  1.7+  
080812 I31  0.3+  0.2-    081115 204  0.6-  0.2-    090621 J53 (1.1+  2.2+) 
080812 I31  0.9+  0.3-    081115 A77  1.1+  0.1-    090626 900 (1.2-  5.3+) 
080812 I31  0.6+  0.5-    081115 204  0.7-  0.2-    090626 900  0.9+  0.7+  
080818 I31  0.7+  0.3-    081115 A77  0.3+  0.1+    090626 D93  1.1-  1.9+  
080818 I31  0.8+  0.4-    081115 B74  0.8+  0.2+    090626 D93 (1.2-  2.3+) 
080818 I31  0.4+  0.4-    081115 A77  0.1+  0.2-    090626 D93  0.9-  1.8+  
080818 I31  0.6+  0.6-    081115 B74  0.3+  0.0     090714 900  0.0   2.0+  
080818 I31  1.1+  0.7-    081115 B74  0.4+  0.0     090714 900 (0.5+  2.7+) 
080819 E94 (2.6-  1.7-)   081115 212  0.1+  0.1+                            
080819 E94  1.6+  1.0-    081115 212  0.1-  0.1-                            

